GW1920 Weather Reports


Display with metric or nautical units.
time (UTC)temp
F
wind
direction
speed
MPH
gust
MPH
rain 1hr
in
rain 24hr
in
rain mn
in
humidity
%
barometer
mb
20260508145413 51 348 0.0 0.0 0.00 0.01 0.01 99 1016.1
20260508144910 51 348 0.0 0.0 0.00 0.01 0.01 99 1016.2
20260508144408 51 348 0.0 0.0 0.00 0.01 0.01 99 1016.0
20260508143905 51 348 0.0 0.0 0.00 0.01 0.01 99 1016.0
20260508143402 51 348 0.0 0.0 0.00 0.01 0.01 99 1016.0
20260508142859 51 348 0.0 0.0 0.00 0.01 0.01 99 1016.3
20260508142356 51 348 0.0 0.0 0.00 0.01 0.01 99 1016.3
20260508141852 51 348 0.0 0.0 0.00 0.01 0.01 99 1016.1
20260508141349 51 348 0.0 0.0 0.00 0.01 0.01 99 1016.1
20260508140847 51 348 0.0 0.0 0.00 0.01 0.01 99 1016.0
20260508140343 51 348 0.0 0.0 0.00 0.01 0.01 99 1015.9
20260508135839 51 348 0.0 0.0 0.00 0.01 0.01 99 1015.7
20260508135336 51 347 0.0 0.0 0.00 0.01 0.01 99 1015.6
20260508134832 51 4 0.0 0.0 0.00 0.01 0.01 99 1015.8
20260508134328 51 352 0.0 0.0 0.00 0.01 0.01 99 1015.7
20260508133825 50 352 0.0 0.0 0.00 0.01 0.01 99 1015.6
20260508133324 50 352 0.0 0.0 0.00 0.01 0.01 99 1015.5
20260508132820 50 352 0.0 0.0 0.00 0.01 0.01 99 1015.5
20260508132318 50 352 0.0 0.0 0.00 0.01 0.01 99 1015.4
20260508131814 50 352 0.0 0.0 0.00 0.01 0.01 99 1015.6
20260508131310 50 352 0.0 0.0 0.00 0.01 0.01 99 1015.6
20260508130807 50 351 0.0 0.0 0.00 0.01 0.01 99 1015.7
20260508130304 51 352 0.0 0.0 0.00 0.01 0.01 99 1015.6
20260508125800 50 352 0.0 0.0 0.00 0.01 0.01 99 1015.5
20260508125256 50 352 0.0 0.0 0.00 0.01 0.01 99 1015.5
20260508124754 50 352 0.0 0.0 0.00 0.01 0.01 99 1015.4
20260508124251 50 352 0.0 0.0 0.00 0.01 0.01 99 1015.4
20260508123749 51 352 0.0 0.0 0.00 0.01 0.01 99 1015.8
20260508123247 51 352 0.0 0.0 0.00 0.01 0.01 99 1015.6
20260508122743 50 351 0.0 0.0 0.00 0.01 0.01 99 1015.6
20260508122240 50 350 0.0 0.0 0.00 0.01 0.01 99 1015.5
20260508121737 50 358 0.0 0.0 0.00 0.01 0.01 99 1015.3
20260508121236 50 358 0.0 0.0 0.00 0.01 0.01 99 1015.6
20260508120733 50 358 0.0 0.0 0.00 0.01 0.01 99 1015.7
20260508120231 50 357 0.0 0.0 0.00 0.01 0.01 99 1015.8
20260508115728 50 357 0.0 0.0 0.00 0.01 0.01 99 1016.0
20260508115225 50 357 0.0 0.0 0.05 0.01 0.01 99 1015.9
20260508114722 50 357 0.0 0.0 0.05 0.01 0.01 99 1015.9
20260508114218 51 357 0.0 0.0 0.00 0.00 0.00 99 1016.0
20260508113715 51 0 0.0 0.0 0.00 0.00 0.00 99 1015.9
20260508113214 51 4 0.0 0.0 0.00 0.00 0.00 99 1015.9
20260508112709 51 5 0.0 0.0 0.00 0.00 0.00 99 1015.7
20260508112207 51 352 0.0 0.0 0.00 0.00 0.00 99 1015.8
20260508111703 51 352 0.0 0.0 0.00 0.00 0.00 99 1015.8
20260508111201 51 352 0.0 0.0 0.00 0.00 0.00 99 1015.7
20260508110658 51 351 0.0 0.0 0.00 0.00 0.00 99 1015.8
20260508110155 51 350 0.0 0.0 0.00 0.00 0.00 99 1015.8
20260508105654 51 350 0.0 0.0 0.00 0.00 0.00 99 1015.9
20260508105152 51 349 0.0 0.0 0.00 0.00 0.00 99 1015.6
20260508104649 51 349 0.0 0.0 0.00 0.00 0.00 99 1015.5
20260508104146 51 348 0.0 0.0 0.00 0.00 0.00 99 1015.7
20260508103643 50 348 0.0 0.0 0.00 0.00 0.00 99 1015.6
20260508103140 51 348 0.0 0.0 0.00 0.00 0.00 99 1015.4
20260508102637 51 348 0.0 0.0 0.00 0.00 0.00 99 1015.4
20260508102135 51 348 0.0 0.0 0.00 0.00 0.00 99 1015.4
20260508101632 51 349 0.0 0.0 0.00 0.00 0.00 99 1015.5
20260508101130 51 348 0.0 0.0 0.00 0.00 0.00 99 1015.6
20260508100627 51 347 0.0 0.0 0.00 0.00 0.00 99 1015.5
20260508100125 51 348 0.0 0.0 0.00 0.00 0.00 99 1015.3
20260508095621 51 348 0.0 0.0 0.00 0.00 0.00 99 1015.5
20260508095119 51 348 0.0 0.0 0.00 0.00 0.00 99 1015.3
20260508094615 51 348 0.0 0.0 0.00 0.00 0.00 99 1015.4
20260508094112 51 348 0.0 0.0 0.00 0.00 0.00 99 1015.5
20260508093609 51 348 0.0 0.0 0.00 0.00 0.00 99 1015.4
20260508093107 51 348 0.0 0.0 0.00 0.00 0.00 99 1015.5
20260508092604 51 348 0.0 0.0 0.00 0.00 0.00 99 1015.6
20260508092103 51 348 0.0 0.0 0.00 0.00 0.00 99 1015.5
20260508091559 51 347 0.0 0.0 0.00 0.00 0.00 99 1015.6
20260508091056 51 347 0.0 0.0 0.00 0.00 0.00 99 1015.6
20260508090554 51 347 0.0 0.0 0.00 0.00 0.00 99 1015.5
20260508090050 51 347 0.0 0.0 0.00 0.00 0.00 99 1015.5
20260508085547 51 347 0.0 0.0 0.00 0.00 0.00 99 1015.5
20260508085045 51 347 0.0 0.0 0.00 0.00 0.00 99 1015.5
20260508084541 51 347 0.0 0.0 0.00 0.00 0.00 99 1015.5
20260508084038 51 347 0.0 0.0 0.00 0.00 0.00 99 1015.2
20260508083536 51 347 0.0 0.0 0.00 0.00 0.00 99 1015.4
20260508083032 51 347 0.0 0.0 0.00 0.00 0.00 99 1015.4
20260508082528 51 347 0.0 0.0 0.00 0.00 0.00 99 1015.3
20260508082026 51 347 0.0 0.0 0.00 0.00 0.00 99 1015.0
20260508081523 51 347 0.0 0.0 0.00 0.00 0.00 99 1015.1
20260508081019 51 347 0.0 0.0 0.00 0.00 0.00 99 1015.0
20260508080517 51 347 0.0 0.0 0.00 0.00 0.00 99 1015.0
20260508080014 51 347 0.0 0.0 0.00 0.00 0.00 99 1015.0
20260508075511 51 347 0.0 0.0 0.00 0.00 0.00 99 1014.9
20260508075008 51 347 0.0 0.0 0.00 0.00 0.00 99 1015.0
20260508074506 51 349 0.0 0.0 0.00 0.00 0.00 99 1014.8
20260508074003 51 349 0.0 0.0 0.00 0.00 0.00 99 1014.5
20260508073500 51 349 0.0 0.0 0.00 0.00 0.00 99 1014.7
20260508072957 51 359 0.0 0.0 0.00 0.00 0.00 99 1014.6
20260508072453 51 359 0.0 0.0 0.00 0.00 0.00 99 1014.6
20260508071950 51 359 0.0 0.0 0.00 0.00 0.00 99 1014.5
20260508071448 51 0 0.0 0.0 0.00 0.00 0.00 99 1014.5
20260508070945 51 0 0.0 0.0 0.00 0.00 0.00 99 1014.7
20260508070443 51 351 0.0 0.0 0.00 0.00 0.00 99 1014.6
20260508065941 51 350 0.0 0.0 0.00 0.00 0.00 99 1014.7
20260508065439 51 350 0.0 0.0 0.00 0.00 0.00 99 1014.6
20260508064937 51 348 0.0 0.0 0.00 0.00 0.00 99 1014.5
20260508064434 51 345 0.0 0.0 0.00 0.00 0.00 99 1014.5
20260508063931 51 357 0.0 0.0 0.00 0.00 0.00 99 1014.4
20260508063428 51 1 0.0 0.0 0.00 0.00 0.00 99 1014.5
20260508062926 51 2 0.0 0.0 0.00 0.00 0.00 99 1014.6
20260508062424 52 0 0.0 0.0 0.00 0.00 0.00 99 1014.7
20260508061920 52 2 0.0 0.0 0.00 0.00 0.00 99 1014.6
20260508061418 52 2 0.0 0.0 0.00 0.00 0.00 99 1014.5
20260508060914 52 2 0.0 0.0 0.00 0.00 0.00 99 1014.4
20260508060412 51 341 0.0 0.0 0.00 0.00 0.00 99 1014.8
20260508055907 52 341 0.0 0.0 0.00 0.00 0.00 99 1014.7
20260508055405 52 341 0.0 0.0 0.00 0.00 0.00 99 1015.0
20260508054901 52 341 0.0 0.0 0.00 0.00 0.00 99 1014.8
20260508054358 52 341 0.0 0.0 0.00 0.00 0.00 99 1014.9
20260508053855 51 341 0.0 0.0 0.00 0.00 0.00 99 1014.8
20260508053352 51 341 0.0 0.0 0.00 0.00 0.00 99 1015.0
20260508052850 52 341 0.0 0.0 0.00 0.00 0.00 99 1015.0
20260508052347 52 341 0.0 0.0 0.00 0.00 0.00 99 1014.9
20260508051843 52 341 0.0 0.0 0.00 0.00 0.00 99 1015.1
20260508051338 52 340 0.0 0.0 0.00 0.00 0.00 99 1015.1
20260508050835 52 340 0.0 0.0 0.00 0.00 0.00 98 1015.2
20260508050333 52 340 0.0 0.0 0.00 0.00 0.00 98 1014.9
20260508045828 52 340 0.0 0.0 0.00 0.00 0.00 98 1015.0
20260508045326 52 340 0.0 0.0 0.00 0.00 0.00 98 1014.8
20260508044823 52 340 0.0 0.0 0.00 0.00 0.00 98 1014.9
20260508044319 52 340 0.0 0.0 0.00 0.00 0.00 98 1014.8
20260508043816 52 342 0.0 0.0 0.00 0.00 0.00 98 1014.9
20260508043313 52 341 0.0 0.0 0.00 0.00 0.00 98 1014.7
20260508042810 53 341 0.0 0.0 0.00 0.00 0.00 97 1014.7
20260508042308 53 341 0.0 0.0 0.00 0.00 0.00 97 1014.6
20260508041804 53 346 0.0 0.0 0.00 0.00 0.00 97 1014.5
20260508041301 53 346 0.0 0.0 0.00 0.00 0.00 96 1014.7
20260508040757 53 346 0.0 0.0 0.00 0.00 0.00 96 1014.8
20260508040255 53 346 0.0 0.0 0.00 0.00 0.00 96 1014.7
20260508035752 53 347 0.0 0.0 0.00 0.00 0.00 95 1014.7
20260508035249 53 337 1.0 1.0 0.00 0.00 0.00 95 1014.6
20260508034745 53 348 0.0 0.0 0.00 0.00 0.00 95 1014.7
20260508034243 53 349 0.0 0.0 0.00 0.00 0.00 95 1014.7
20260508033740 53 348 0.0 0.0 0.00 0.00 0.00 95 1014.6
20260508033238 53 348 0.0 0.0 0.00 0.00 0.00 95 1014.3
20260508032735 53 359 0.0 0.0 0.00 0.00 0.00 95 1014.5
20260508032232 53 2 0.0 0.0 0.00 0.00 0.00 94 1014.1
20260508031729 53 3 0.0 0.0 0.00 0.00 0.00 94 1014.0
20260508031225 53 14 0.0 0.0 0.00 0.00 0.00 94 1014.1
20260508030722 53 346 0.0 0.0 0.00 0.00 0.00 94 1014.0
20260508030219 54 344 0.0 0.0 0.00 0.00 0.00 94 1013.9
20260508025715 54 348 0.0 0.0 0.00 0.00 0.00 93 1013.9
20260508025213 54 348 0.0 0.0 0.00 0.00 0.00 93 1013.6
20260508024708 54 345 0.0 1.0 0.00 0.00 0.00 93 1013.6
20260508024206 54 345 1.0 1.0 0.00 0.00 0.00 92 1013.6
20260508023702 54 346 1.0 1.0 0.00 0.00 0.00 92 1013.5
20260508023200 54 348 0.0 0.0 0.00 0.00 0.00 92 1013.4
20260508022655 54 348 0.0 0.0 0.00 0.00 0.00 92 1013.5
20260508022153 54 341 1.0 1.0 0.00 0.00 0.00 91 1013.6
20260508021649 54 347 1.0 1.0 0.00 0.00 0.00 91 1013.7
20260508021144 54 347 1.0 1.0 0.00 0.00 0.00 91 1013.6
20260508020642 54 336 1.0 1.0 0.00 0.00 0.00 91 1013.4
20260508020140 54 339 1.0 2.0 0.00 0.00 0.00 91 1013.5
20260508015637 55 341 0.0 1.0 0.00 0.00 0.00 91 1013.4
20260508015134 55 348 0.0 0.0 0.00 0.00 0.00 91 1013.6
20260508014630 55 333 1.0 2.0 0.00 0.00 0.00 90 1013.5
20260508014126 55 339 1.0 1.0 0.00 0.00 0.00 90 1013.5
20260508013623 55 346 1.0 1.0 0.00 0.00 0.00 91 1013.5
20260508013120 55 350 0.0 0.0 0.00 0.00 0.00 90 1013.6
20260508012617 55 340 2.0 2.0 0.00 0.00 0.00 90 1013.4
20260508012114 55 337 1.0 2.0 0.00 0.00 0.00 90 1013.7
20260508011613 55 339 1.0 1.0 0.00 0.00 0.00 89 1013.5
20260508011109 56 347 0.0 0.0 0.00 0.00 0.00 90 1013.8
20260508010606 56 338 1.0 1.0 0.00 0.00 0.00 89 1013.6
20260508010105 56 345 1.0 1.0 0.00 0.00 0.00 89 1013.8
20260508005600 56 341 1.0 1.0 0.00 0.00 0.00 89 1013.9
20260508005057 56 342 1.0 1.0 0.00 0.00 0.00 89 1013.7
20260508004553 56 334 2.0 2.0 0.00 0.00 0.00 89 1013.8
20260508004050 56 335 1.0 1.0 0.00 0.00 0.00 89 1013.8
20260508003546 56 334 1.0 2.0 0.00 0.00 0.00 88 1013.7
20260508003044 56 341 1.0 1.0 0.00 0.00 0.00 88 1013.9
20260508002540 57 349 1.0 1.0 0.00 0.00 0.00 88 1013.9
20260508002037 57 71 1.0 1.0 0.00 0.00 0.00 87 1014.1
20260508001533 57 337 1.0 1.0 0.00 0.00 0.00 88 1014.0
20260508001029 57 349 0.0 1.0 0.00 0.00 0.00 88 1014.2
20260508000525 56 351 1.0 1.0 0.00 0.00 0.00 88 1014.2
20260508000023 57 350 1.0 1.0 0.00 0.00 0.00 88 1014.1
20260507235519 57 346 1.0 1.0 0.00 0.00 0.00 87 1014.1
20260507235017 57 345 0.0 0.0 0.00 0.00 0.00 88 1014.3
20260507234513 56 348 0.0 0.0 0.00 0.00 0.00 89 1014.1
20260507234010 56 350 0.0 0.0 0.00 0.00 0.00 89 1014.3
20260507233506 56 357 1.0 1.0 0.00 0.00 0.00 88 1014.6
20260507233005 56 350 0.0 0.0 0.00 0.00 0.00 88 1014.4
20260507232501 56 350 0.0 0.0 0.00 0.00 0.00 89 1014.6
20260507231959 55 348 0.0 0.0 0.00 0.00 0.00 89 1014.6
20260507231455 55 345 0.0 1.0 0.00 0.00 0.00 89 1014.9
20260507230952 55 347 1.0 1.0 0.00 0.00 0.00 89 1014.8
20260507230449 55 351 0.0 0.0 0.00 0.00 0.00 90 1014.9
20260507225944 55 344 1.0 1.0 0.00 0.00 0.00 89 1015.0
20260507225440 55 359 0.0 0.0 0.00 0.00 0.00 90 1015.3
20260507224937 55 336 2.0 2.0 0.00 0.00 0.00 90 1015.3
20260507224432 55 336 0.0 0.0 0.00 0.00 0.00 91 1015.0
20260507223930 55 333 1.0 2.0 0.00 0.00 0.00 90 1015.2
20260507223425 54 351 1.0 1.0 0.00 0.00 0.00 91 1015.4
20260507222922 55 339 2.0 2.0 0.00 0.00 0.00 90 1015.7
20260507222420 55 349 1.0 1.0 0.00 0.00 0.00 90 1015.6
20260507221916 55 350 1.0 2.0 0.00 0.00 0.00 90 1015.7
20260507221413 55 348 0.0 0.0 0.00 0.00 0.00 90 1015.5
20260507220908 55 328 2.0 2.0 0.00 0.00 0.00 90 1015.5
20260507220407 55 339 1.0 1.0 0.00 0.00 0.00 90 1015.4
20260507215903 55 328 2.0 2.0 0.00 0.00 0.00 90 1015.4
20260507215400 55 326 3.0 3.0 0.00 0.00 0.00 90 1015.3
20260507214857 55 344 3.0 3.0 0.00 0.00 0.00 89 1015.3
20260507214354 55 341 1.0 1.0 0.00 0.00 0.00 90 1015.5
20260507213850 56 316 1.0 1.0 0.00 0.00 0.00 90 1015.4
20260507213347 56 352 0.0 0.0 0.00 0.00 0.00 90 1015.3
20260507212844 56 321 1.0 1.0 0.00 0.00 0.00 90 1015.2
20260507212339 55 349 0.0 0.0 0.00 0.00 0.00 90 1015.3
20260507211836 55 337 1.0 1.0 0.00 0.00 0.00 90 1015.0
20260507211333 55 339 2.0 2.0 0.00 0.00 0.00 90 1015.0
20260507210830 56 330 2.0 3.0 0.00 0.00 0.00 91 1015.0
20260507210327 55 335 3.0 3.0 0.00 0.00 0.00 90 1015.0
20260507205823 56 337 2.0 3.0 0.00 0.00 0.00 90 1015.0
20260507205320 57 329 3.0 3.0 0.00 0.00 0.00 89 1015.0
20260507204816 57 347 2.0 2.0 0.00 0.00 0.00 90 1014.7
20260507204314 57 328 2.0 2.0 0.00 0.00 0.00 89 1014.9
20260507203812 57 333 2.0 2.0 0.00 0.00 0.00 90 1014.7
20260507203309 57 337 2.0 2.0 0.00 0.00 0.00 90 1014.7
20260507202805 57 341 1.0 1.0 0.00 0.00 0.00 89 1014.7
20260507202306 57 338 2.0 2.0 0.00 0.00 0.00 90 1014.8
20260507201756 57 328 2.0 2.0 0.00 0.00 0.00 90 1014.5
20260507201253 57 342 1.0 1.0 0.00 0.00 0.00 90 1014.6
20260507200750 57 324 2.0 2.0 0.00 0.00 0.00 90 1014.6
20260507200246 57 329 2.0 2.0 0.00 0.00 0.00 89 1014.6
20260507195742 57 331 1.0 1.0 0.00 0.00 0.00 90 1014.5
20260507195239 57 350 2.0 2.0 0.00 0.00 0.00 90 1014.4
20260507194737 57 345 1.0 1.0 0.00 0.00 0.00 90 1014.7
20260507194232 57 357 1.0 1.0 0.00 0.00 0.00 89 1014.4
20260507193729 57 339 1.0 2.0 0.00 0.00 0.00 89 1014.7
20260507193226 57 341 0.0 0.0 0.00 0.00 0.00 90 1014.6
20260507192722 56 341 1.0 1.0 0.00 0.00 0.00 90 1014.6
20260507192219 56 347 1.0 1.0 0.00 0.00 0.00 90 1014.4
20260507191715 56 351 0.0 0.0 0.00 0.00 0.00 90 1014.5
20260507191212 56 348 0.0 0.0 0.00 0.00 0.00 90 1014.6
20260507190709 56 350 0.0 0.0 0.00 0.00 0.00 91 1014.8
20260507190208 56 348 0.0 0.0 0.00 0.00 0.00 91 1015.1
20260507185706 56 334 0.0 0.0 0.00 0.00 0.00 91 1015.2
20260507185202 55 359 0.0 0.0 0.00 0.00 0.00 91 1015.1
20260507184700 55 14 0.0 0.0 0.00 0.00 0.00 92 1014.9
20260507184158 55 351 0.0 0.0 0.00 0.00 0.00 92 1015.2
20260507183654 55 343 0.0 1.0 0.00 0.00 0.00 92 1015.2
20260507183151 54 344 0.0 1.0 0.00 0.00 0.00 93 1015.2
20260507182648 54 351 1.0 1.0 0.00 0.00 0.00 93 1015.2
20260507182143 54 349 0.0 0.0 0.00 0.00 0.00 93 1015.3
20260507181640 54 343 1.0 1.0 0.00 0.00 0.00 93 1015.2
20260507181136 54 350 0.0 0.0 0.00 0.00 0.00 93 1015.2
20260507180633 54 325 1.0 1.0 0.00 0.00 0.00 93 1015.3
20260507180130 54 5 0.0 1.0 0.00 0.00 0.00 95 1015.3
20260507175626 54 357 0.0 0.0 0.00 0.00 0.00 94 1015.4
20260507175123 54 352 0.0 1.0 0.00 0.00 0.00 94 1015.3
20260507171017 54 349 0.0 0.0 0.00 0.00 0.00 95 1015.3
20260507170513 54 349 0.0 0.0 0.00 0.00 0.00 95 1015.3
20260507170010 54 335 1.0 1.0 0.00 0.00 0.00 95 1015.1
20260507165506 54 344 1.0 1.0 0.00 0.00 0.00 94 1015.2
20260507165003 53 347 1.0 1.0 0.00 0.00 0.00 94 1015.1
20260507164459 53 353 0.0 0.0 0.00 0.00 0.00 94 1014.9
20260507163956 54 349 1.0 1.0 0.00 0.00 0.00 94 1014.9
20260507163453 53 348 0.0 0.0 0.00 0.00 0.00 95 1015.0
20260507162950 53 333 0.0 1.0 0.00 0.00 0.00 94 1014.9
20260507162446 54 330 1.0 1.0 0.00 0.00 0.00 94 1015.0
20260507161943 53 352 0.0 0.0 0.00 0.00 0.00 95 1015.0
20260507161439 53 352 0.0 0.0 0.00 0.00 0.00 95 1014.9
20260507160936 53 352 0.0 0.0 0.00 0.00 0.00 95 1014.9
20260507160432 53 354 0.0 0.0 0.00 0.00 0.00 96 1014.7
20260507155927 53 354 0.0 0.0 0.00 0.00 0.00 96 1014.8
20260507155424 52 353 0.0 0.0 0.00 0.00 0.00 96 1014.8
20260507154921 53 344 0.0 1.0 0.00 0.00 0.00 95 1014.8
20260507154418 53 343 0.0 0.0 0.00 0.00 0.00 95 1014.8
20260507153915 53 342 0.0 1.0 0.00 0.00 0.00 95 1014.7
20260507153412 53 347 0.0 0.0 0.00 0.00 0.00 96 1014.9
20260507152908 52 347 0.0 0.0 0.00 0.00 0.00 97 1014.7
20260507152404 52 347 0.0 0.0 0.00 0.00 0.00 97 1014.9
20260507151900 52 348 0.0 0.0 0.00 0.00 0.00 98 1014.9
20260507151356 52 348 0.0 0.0 0.00 0.00 0.00 99 1014.7
20260507150854 52 348 0.0 0.0 0.00 0.00 0.00 99 1014.7
20260507150351 52 348 0.0 0.0 0.00 0.00 0.00 99 1014.7
20260507145847 51 348 0.0 0.0 0.00 0.00 0.00 99 1014.8